Change the Weather History Date:

Monday, October 21, 2013

  Actual Average Record
Temperature  
Mean Temperature 39 °F -  
Max Temperature 46 °F 57 °F 75 °F (2007)
Min Temperature 32 °F 41 °F 27 °F (1952)
Degree Days  
Heating Degree Days 26    
Moisture  
Dew Point 31 °F    
Average Humidity 70    
Maximum Humidity 87    
Minimum Humidity 52    
Precipitation  
Precipitation 0.00 in - - ()
Sea Level Pressure  
Sea Level Pressure 29.85 in    
Wind  
Wind Speed 14 mph (West)    
Max Wind Speed 20 mph    
Max Gust Speed 28 mph    
Visibility 10 miles    
Events      
Averages and records for this station are not official NWS values.
T = Trace of Precipitation, MM = Missing Value Source: NWS Daily Summary

Daily Weather History Graph

Daily Weather History Graph

Search for Another Location

Airport or City:

Trip Planner

Search our weather history database for the weather conditions in past years. The results will help you decide how hot, cold, wet, or windy it might be!

Date:

Astronomy

Oct. 21, 2013 Rise Set
Actual Time 7:13 AM CDT 5:57 PM CDT
Civil Twilight 6:44 AM CDT 6:26 PM CDT
Nautical Twilight 6:10 AM CDT 7:00 PM CDT
Astronomical Twilight 5:37 AM CDT 7:33 PM CDT
Moon 7:45 PM CDT (10/21) 9:52 AM CDT (10/21)
Length of Visible Light 11h 42m
Length of Day
10h 44m
Waning Gibbous, 92% of the Moon is Illuminated
Oct 21
Waning Gibbous
Oct 26
Last Quarter
Nov 3
New
Nov 9
First Quarter
Nov 17
Full

Hourly Weather History & Observations

Time (CDT) Temp. Windchill Dew Point Humidity Pressure Visibility Wind Dir Wind Speed Gust Speed Precip Events Conditions
12:53 AM 46.9 °F - 43.0 °F 86% 29.71 in 10.0 mi WSW 13.8 mph - N/A   Clear
1:53 AM 46.0 °F 40.6 °F 42.1 °F 86% 29.73 in 10.0 mi West 11.5 mph 20.7 mph N/A   Partly Cloudy
2:44 AM 46.4 °F 41.1 °F 42.8 °F 87% 29.73 in 10.0 mi West 11.5 mph 19.6 mph N/A   Overcast
2:53 AM 46.0 °F 39.6 °F 41.0 °F 83% 29.75 in 10.0 mi West 15.0 mph 21.9 mph N/A   Overcast
3:53 AM 43.0 °F 35.4 °F 37.9 °F 82% 29.77 in 10.0 mi West 16.1 mph 24.2 mph N/A   Overcast
4:53 AM 41.0 °F 31.9 °F 34.0 °F 76% 29.79 in 10.0 mi West 19.6 mph 27.6 mph N/A   Overcast
5:53 AM 39.9 °F 33.4 °F 34.0 °F 79% 29.82 in 10.0 mi West 10.4 mph 19.6 mph N/A   Overcast
6:53 AM 39.9 °F 31.8 °F 33.1 °F 77% 29.83 in 10.0 mi West 15.0 mph 18.4 mph N/A   Overcast
7:53 AM 39.0 °F 31.8 °F 34.0 °F 82% 29.85 in 10.0 mi West 11.5 mph - N/A   Overcast
8:53 AM 39.9 °F 32.1 °F 33.1 °F 77% 29.86 in 10.0 mi West 13.8 mph 20.7 mph N/A   Overcast
9:41 AM 41.0 °F 34.7 °F 33.8 °F 76% 29.85 in 10.0 mi West 10.4 mph 19.6 mph N/A   Overcast
9:53 AM 41.0 °F 33.5 °F 33.1 °F 73% 29.87 in 10.0 mi West 13.8 mph 18.4 mph N/A   Overcast
10:03 AM 41.0 °F 33.5 °F 33.8 °F 76% 29.85 in 10.0 mi West 13.8 mph 20.7 mph N/A   Overcast
10:50 AM 42.8 °F 35.8 °F 32.0 °F 66% 29.85 in 10.0 mi West 13.8 mph 19.6 mph N/A   Overcast
10:53 AM 42.1 °F 36.1 °F 32.0 °F 67% 29.86 in 10.0 mi West 10.4 mph - N/A   Overcast
11:53 AM 44.1 °F 37.7 °F 32.0 °F 63% 29.86 in 10.0 mi WNW 12.7 mph 20.7 mph N/A   Mostly Cloudy
12:53 PM 42.1 °F 35.2 °F 28.0 °F 58% 29.86 in 10.0 mi West 12.7 mph 20.7 mph N/A   Overcast
1:53 PM 39.9 °F 32.1 °F 30.0 °F 68% 29.85 in 10.0 mi West 13.8 mph 24.2 mph N/A   Overcast
2:53 PM 39.9 °F 31.1 °F 28.0 °F 63% 29.86 in 10.0 mi West 17.3 mph 23.0 mph N/A   Overcast
3:53 PM 37.9 °F 27.9 °F 25.0 °F 60% 29.87 in 10.0 mi West 19.6 mph 26.5 mph N/A   Overcast
4:53 PM 37.0 °F 27.4 °F 23.0 °F 57% 29.89 in 10.0 mi West 17.3 mph 26.5 mph N/A   Overcast
5:53 PM 37.0 °F 27.0 °F 21.9 °F 54% 29.91 in 10.0 mi West 18.4 mph 26.5 mph N/A   Overcast
6:53 PM 37.0 °F 27.0 °F 21.0 °F 52% 29.91 in 10.0 mi West 18.4 mph 24.2 mph N/A   Overcast
7:53 PM 37.0 °F 28.9 °F 21.9 °F 54% 29.91 in 10.0 mi West 12.7 mph - N/A   Overcast
8:53 PM 37.0 °F 28.5 °F 24.1 °F 59% 29.91 in 10.0 mi West 13.8 mph 20.7 mph N/A   Overcast
9:53 PM 34.0 °F 26.6 °F 24.1 °F 67% 29.91 in 10.0 mi West 9.2 mph - N/A   Partly Cloudy
10:53 PM 32.0 °F 23.6 °F 23.0 °F 69% 29.91 in 10.0 mi West 10.4 mph - N/A   Clear
11:53 PM 32.0 °F 23.6 °F 21.9 °F 66% 29.90 in 10.0 mi West 10.4 mph - N/A   Clear